Orbital Elements at Epoch 2459200.5 (2020-Dec-17.0) TDB
Reference: JPL 16 (heliocentric ecliptic J2000)
Element | Value | Uncertainty (1-sigma) | Units |
e | .1920361617783106 | 4.9389e-08 | |
a | 2.279764984907672 | 1.0144e-08 | au |
q | 1.841967667449415 | 1.0999e-07 | au |
i | 6.005112961524065 | 5.1708e-06 | deg |
node | 325.5662709177979 | 6.3404e-05 | deg |
peri | 335.5606575078668 | 6.9266e-05 | deg |
M | 89.19782854911463 | 3.178e-05 | deg |
tp | 2458888.980435839701 (2020-Feb-09.48043584) | 0.00010979 | TDB |
period | 1257.284453241555 3.44 | 8.3919e-06 2.298e-08 | d yr |
n | .2863313859261053 | 1.9112e-09 | deg/d |
Q | 2.71756230236593 | 1.2093e-08 | au |
|
| | Orbit Determination Parameters
Additional Information
|